N0JVW-13 Weather Reports


time (UTC)temp
C
wind
direction
speed
KPH
gust
KPH
rain 1hr
cm
rain 24hr
cm
rain mn
cm
humidity
%
barometer
mb
20260905022544 27 127 0.0 0.0 0.00 0.00 0.00 69 1010.5
20260905022019 28 127 0.0 0.0 0.00 0.00 0.00 68 1010.4
20260905021615 28 127 0.0 0.0 0.00 0.00 0.00 68 1010.2
20260905021042 28 127 0.0 0.0 0.00 0.00 0.00 68 1010.2
20260905020522 28 127 0.0 0.0 0.00 0.00 0.00 68 1010.1
20260905020002 28 127 0.0 0.0 0.00 0.00 0.00 68 1010.0
20260905015547 28 127 0.0 0.0 0.00 0.00 0.00 67 1010.0
20260905015027 28 127 0.0 0.0 0.00 0.00 0.00 67 1010.0
20260905014506 28 127 0.0 0.0 0.00 0.00 0.00 66 1009.9
20260905014048 28 127 0.0 0.0 0.00 0.00 0.00 65 1009.8
20260905013527 29 127 0.0 0.0 0.00 0.00 0.00 65 1009.8
20260905013008 29 127 0.0 0.0 0.00 0.00 0.00 64 1009.7
20260905012550 29 127 0.0 0.0 0.00 0.00 0.00 64 1009.7
20260905012030 30 127 0.0 0.0 0.00 0.00 0.00 63 1009.6
20260905011509 30 127 0.0 0.0 0.00 0.00 0.00 63 1009.6
20260905011052 30 127 0.0 0.0 0.00 0.00 0.00 63 1009.5
20260905010532 30 127 0.0 0.0 0.00 0.00 0.00 61 1009.4
20260905010011 30 127 0.0 0.0 0.00 0.00 0.00 60 1009.4
20260905005555 31 127 0.0 0.0 0.00 0.00 0.00 60 1009.5
20260905005035 31 127 0.0 0.0 0.00 0.00 0.00 59 1009.4
20260905004514 31 127 0.0 0.0 0.00 0.00 0.00 58 1009.5
20260905004058 31 127 0.0 0.0 0.00 0.00 0.00 58 1009.5
20260905003538 31 127 0.0 0.0 0.00 0.00 0.00 57 1009.4
20260905003018 32 127 0.0 0.0 0.00 0.00 0.00 56 1009.4
20260905002601 32 127 0.0 0.0 0.00 0.00 0.00 56 1009.4
20260905002042 32 127 0.0 0.0 0.00 0.00 0.00 55 1009.5
20260905001518 32 127 0.0 0.0 0.00 0.00 0.00 54 1009.6
20260905001101 32 127 0.0 0.0 0.00 0.00 0.00 54 1009.5
20260905000542 32 127 0.0 0.0 0.00 0.00 0.00 53 1009.5
20260905000021 33 127 0.0 0.0 0.00 0.00 0.00 53 1009.5
20260904235603 33 127 0.0 0.0 0.00 0.00 0.00 52 1009.5
20260904235043 33 127 0.0 0.0 0.00 0.00 0.00 52 1009.6
20260904234528 33 161 0.0 0.0 0.00 0.00 0.00 51 1009.6
20260904234000 33 161 0.0 1.6 0.00 0.00 0.00 50 1009.7
20260904233549 33 144 0.0 1.6 0.00 0.00 0.00 50 1009.7
20260904233024 33 140 0.0 1.6 0.00 0.00 0.00 50 1009.7
20260904232503 33 153 0.0 3.2 0.00 0.00 0.00 49 1009.8
20260904232045 33 127 0.0 3.2 0.00 0.00 0.00 49 1009.8
20260904231525 33 153 0.0 4.8 0.00 0.00 0.00 48 1009.8
20260904231003 33 123 0.0 3.2 0.00 0.00 0.00 48 1009.8
20260904230548 33 153 0.0 3.2 0.00 0.00 0.00 49 1009.8
20260904230036 33 133 0.0 3.2 0.00 0.00 0.00 48 1009.9
20260904225509 34 160 0.0 3.2 0.00 0.00 0.00 48 1009.9
20260904225049 34 153 0.0 4.8 0.00 0.00 0.00 49 1010.0
20260904224533 34 158 0.0 4.8 0.00 0.00 0.00 48 1009.9
20260904224012 34 158 0.0 3.2 0.00 0.00 0.00 49 1009.8
20260904223554 34 114 0.0 3.2 0.00 0.00 0.00 48 1009.8
20260904223033 34 155 0.0 4.8 0.00 0.00 0.00 48 1009.9
20260904222514 34 167 1.6 4.8 0.00 0.00 0.00 48 1009.8
20260904222055 34 141 0.0 4.8 0.00 0.00 0.00 49 1009.8
20260904221536 34 158 0.0 4.8 0.00 0.00 0.00 48 1009.9
20260904221015 34 142 0.0 3.2 0.00 0.00 0.00 49 1010.0
20260904220558 34 102 0.0 4.8 0.00 0.00 0.00 50 1010.0
20260904220043 34 111 0.0 4.8 0.00 0.00 0.00 50 1010.0
20260904215518 34 133 0.0 1.6 0.00 0.00 0.00 50 1010.1
20260904215103 34 140 0.0 3.2 0.00 0.00 0.00 50 1010.1
20260904214548 34 117 0.0 3.2 0.00 0.00 0.00 50 1010.1
20260904214024 34 162 0.0 4.8 0.00 0.00 0.00 50 1010.1
20260904213604 34 149 1.6 4.8 0.00 0.00 0.00 49 1010.2
20260904213044 34 127 0.0 4.8 0.00 0.00 0.00 50 1010.2
20260904212524 34 165 0.0 4.8 0.00 0.00 0.00 49 1010.1
20260904212003 34 165 0.0 6.4 0.00 0.00 0.00 49 1010.2
20260904211547 34 122 1.6 6.4 0.00 0.00 0.00 50 1010.2
20260904211027 34 140 0.0 6.4 0.00 0.00 0.00 49 1010.3
20260904210612 34 147 0.0 6.4 0.00 0.00 0.00 50 1010.3
20260904210106 34 159 0.0 4.8 0.00 0.00 0.00 50 1010.4
20260904205538 34 163 0.0 4.8 0.00 0.00 0.00 50 1010.5
20260904205020 34 148 0.0 1.6 0.00 0.00 0.00 50 1010.5
20260904204600 34 136 0.0 4.8 0.00 0.00 0.00 50 1010.4
20260904204039 34 158 0.0 4.8 0.00 0.00 0.00 50 1010.5
20260904203520 35 160 0.0 4.8 0.00 0.00 0.00 51 1010.6
20260904203103 34 160 1.6 4.8 0.00 0.00 0.00 51 1010.7
20260904202542 34 127 0.0 4.8 0.00 0.00 0.00 51 1010.6
20260904202021 34 127 0.0 4.8 0.00 0.00 0.00 51 1010.7
20260904201501 34 134 0.0 4.8 0.00 0.00 0.00 50 1010.7
20260904201045 34 160 0.0 4.8 0.00 0.00 0.00 51 1010.8
20260904200630 34 162 0.0 6.4 0.00 0.00 0.00 51 1010.8
20260904200030 34 139 0.0 6.4 0.00 0.00 0.00 50 1010.8
20260904195555 34 139 0.0 6.4 0.00 0.00 0.00 50 1010.9
20260904195035 34 153 0.0 6.4 0.00 0.00 0.00 51 1010.9
20260904194515 35 149 1.6 6.4 0.00 0.00 0.00 49 1011.0
20260904194058 35 132 0.0 4.8 0.00 0.00 0.00 51 1010.9
20260904193538 34 158 1.6 3.2 0.00 0.00 0.00 52 1011.0
20260904193019 34 129 0.0 3.2 0.00 0.00 0.00 52 1011.1
20260904192601 34 139 0.0 4.8 0.00 0.00 0.00 52 1011.1
20260904192043 34 151 1.6 6.4 0.00 0.00 0.00 51 1011.2
20260904191519 34 142 0.0 6.4 0.00 0.00 0.00 51 1011.2
20260904191104 34 166 0.0 4.8 0.00 0.00 0.00 51 1011.2
20260904190542 34 121 1.6 4.8 0.00 0.00 0.00 52 1011.3
20260904190021 33 124 0.0 9.7 0.00 0.00 0.00 53 1011.3
20260904185501 33 125 1.6 9.7 0.00 0.00 0.00 52 1011.3
20260904185048 33 165 1.6 6.4 0.00 0.00 0.00 51 1011.3
20260904184524 33 122 0.0 6.4 0.00 0.00 0.00 53 1011.4
20260904184003 33 163 1.6 6.4 0.00 0.00 0.00 54 1011.4
20260904183546 33 134 0.0 4.8 0.00 0.00 0.00 55 1011.4
20260904183025 33 160 0.0 4.8 0.00 0.00 0.00 54 1011.5
20260904182505 33 172 0.0 4.8 0.00 0.00 0.00 55 1011.5
20260904182048 33 165 0.0 3.2 0.00 0.00 0.00 55 1011.5
20260904181528 33 161 0.0 4.8 0.00 0.00 0.00 54 1011.6
20260904181007 33 165 0.0 1.6 0.00 0.00 0.00 56 1011.7
20260904180551 33 169 0.0 6.4 0.00 0.00 0.00 55 1011.7
20260904180030 33 173 0.0 8.0 0.00 0.00 0.00 56 1011.8
20260904175511 33 159 1.6 4.8 0.00 0.00 0.00 56 1011.8
20260904175053 33 152 0.0 6.4 0.00 0.00 0.00 57 1012.0
20260904174533 32 162 0.0 6.4 0.00 0.00 0.00 58 1011.9
20260904174013 32 158 0.0 6.4 0.00 0.00 0.00 57 1011.9
20260904173556 32 117 3.2 6.4 0.00 0.00 0.00 57 1012.0
20260904173036 32 157 0.0 4.8 0.00 0.00 0.00 59 1012.1
20260904172515 32 169 0.0 4.8 0.00 0.00 0.00 58 1012.1
20260904172059 32 115 0.0 4.8 0.00 0.00 0.00 58 1012.1
20260904171606 32 169 1.6 6.4 0.00 0.00 0.00 59 1012.2
20260904171017 32 162 0.0 8.0 0.00 0.00 0.00 60 1012.2
20260904170600 32 178 1.6 8.0 0.00 0.00 0.00 59 1012.3
20260904170041 32 134 1.6 8.0 0.00 0.00 0.00 60 1012.3
20260904165522 31 154 0.0 6.4 0.00 0.00 0.00 61 1012.3
20260904165103 31 205 0.0 6.4 0.00 0.00 0.00 61 1012.5
20260904164543 31 154 1.6 6.4 0.00 0.00 0.00 64 1012.6
20260904164021 31 210 0.0 1.6 0.00 0.00 0.00 64 1012.6
20260904163501 31 210 0.0 4.8 0.00 0.00 0.00 63 1012.6
20260904163053 31 210 0.0 4.8 0.00 0.00 0.00 63 1012.6
20260904162525 31 133 0.0 3.2 0.00 0.00 0.00 65 1012.6
20260904162004 30 134 0.0 3.2 0.00 0.00 0.00 65 1012.6
20260904161556 30 139 0.0 0.0 0.00 0.00 0.00 66 1012.5
20260904161028 30 139 0.0 3.2 0.00 0.00 0.00 66 1012.6
20260904160507 30 128 0.0 4.8 0.00 0.00 0.00 67 1012.6
20260904160057 30 120 0.0 4.8 0.00 0.00 0.00 67 1012.6
20260904155530 30 152 0.0 6.4 0.00 0.00 0.00 67 1012.6
20260904155009 30 158 0.0 3.2 0.00 0.00 0.00 68 1012.6
20260904154554 30 145 0.0 4.8 0.00 0.00 0.00 67 1012.7
20260904154033 29 124 0.0 4.8 0.00 0.00 0.00 68 1012.6
20260904153511 29 141 0.0 4.8 0.00 0.00 0.00 68 1012.7
20260904153111 29 342 0.0 3.2 0.00 0.00 0.00 68 1012.7
20260904152534 29 342 0.0 3.2 0.00 0.00 0.00 69 1012.7
20260904152013 29 346 0.0 3.2 0.00 0.00 0.00 69 1012.7
20260904151558 28 158 0.0 3.2 0.00 0.00 0.00 70 1012.6
20260904151037 28 158 0.0 3.2 0.00 0.00 0.00 70 1012.7
20260904150520 28 158 0.0 3.2 0.00 0.00 0.00 70 1012.7
20260904150100 28 132 0.0 3.2 0.00 0.00 0.00 70 1012.6
20260904145540 28 132 0.0 4.8 0.00 0.00 0.00 70 1012.7
20260904145019 28 173 0.0 4.8 0.00 0.00 0.00 71 1012.6
20260904144613 27 178 0.0 3.2 0.00 0.00 0.00 71 1012.6
20260904144041 27 119 0.0 3.2 0.00 0.00 0.00 71 1012.7
20260904143520 27 132 0.0 0.0 0.00 0.00 0.00 71 1012.8
20260904143122 27 133 0.0 3.2 0.00 0.00 0.00 71 1012.8
20260904142543 27 132 0.0 3.2 0.00 0.00 0.00 70 1012.8
20260904142022 27 124 0.0 3.2 0.00 0.00 0.00 70 1012.8
20260904141501 26 160 0.0 3.2 0.00 0.00 0.00 69 1012.6
20260904141044 26 176 0.0 3.2 0.00 0.00 0.00 69 1012.7
20260904140528 26 148 0.0 3.2 0.00 0.00 0.00 66 1012.6
20260904140004 26 122 0.0 1.6 0.00 0.00 0.00 67 1012.6
20260904135547 26 157 0.0 1.6 0.00 0.00 0.00 65 1012.6
20260904135027 26 157 0.0 3.2 0.00 0.00 0.00 65 1012.6
20260904134506 25 162 0.0 0.0 0.00 0.00 0.00 64 1012.6
20260904134050 25 160 0.0 0.0 0.00 0.00 0.00 64 1012.7
20260904133529 25 151 0.0 0.0 0.00 0.00 0.00 61 1012.7
20260904133010 25 153 0.0 0.0 0.00 0.00 0.00 60 1012.7
20260904132553 25 132 0.0 0.0 0.00 0.00 0.00 57 1012.8
20260904132032 24 132 0.0 0.0 0.00 0.00 0.00 58 1012.7
20260904131512 24 132 0.0 0.0 0.00 0.00 0.00 55 1012.6
20260904131059 24 132 0.0 0.0 0.00 0.00 0.00 53 1012.5
20260904130535 23 159 0.0 1.6 0.00 0.00 0.00 54 1012.5
20260904130014 23 159 0.0 3.2 0.00 0.00 0.00 53 1012.4
20260904125558 23 146 0.0 3.2 0.00 0.00 0.00 52 1012.4
20260904125038 23 146 0.0 1.6 0.00 0.00 0.00 50 1012.3
20260904124517 23 117 0.0 1.6 0.00 0.00 0.00 49 1012.2
20260904124100 23 114 0.0 0.0 0.00 0.00 0.00 48 1012.1
20260904123540 23 154 0.0 0.0 0.00 0.00 0.00 47 1012.1
20260904123020 23 154 0.0 0.0 0.00 0.00 0.00 47 1012.0
20260904122606 23 155 0.0 0.0 0.00 0.00 0.00 45 1012.0
20260904122042 23 154 0.0 0.0 0.00 0.00 0.00 45 1012.0
20260904121519 23 154 0.0 0.0 0.00 0.00 0.00 44 1012.0
20260904121103 23 155 0.0 0.0 0.00 0.00 0.00 46 1011.9
20260904120541 23 154 0.0 0.0 0.00 0.00 0.00 46 1011.8
20260904120032 23 154 0.0 0.0 0.00 0.00 0.00 47 1011.7
20260904115501 23 154 0.0 0.0 0.00 0.00 0.00 50 1011.7
20260904115045 23 154 0.0 0.0 0.00 0.00 0.00 50 1011.8
20260904114524 23 154 0.0 1.6 0.00 0.00 0.00 51 1011.7
20260904114003 23 153 0.0 1.6 0.00 0.00 0.00 53 1011.7
20260904113544 23 144 0.0 0.0 0.00 0.00 0.00 56 1011.7
20260904113024 23 141 0.0 0.0 0.00 0.00 0.00 58 1011.6
20260904112502 23 141 0.0 0.0 0.00 0.00 0.00 59 1011.6
20260904112045 23 141 0.0 0.0 0.00 0.00 0.00 59 1011.6
20260904111525 23 141 0.0 0.0 0.00 0.00 0.00 59 1011.5
20260904111004 23 141 0.0 0.0 0.00 0.00 0.00 60 1011.5
20260904110549 23 141 0.0 0.0 0.00 0.00 0.00 60 1011.4
20260904110027 23 141 0.0 0.0 0.00 0.00 0.00 62 1011.3
20260904105507 23 141 0.0 0.0 0.00 0.00 0.00 62 1011.2
20260904105051 23 141 0.0 0.0 0.00 0.00 0.00 63 1011.3
20260904104527 23 141 0.0 0.0 0.00 0.00 0.00 64 1011.2
20260904104009 23 141 0.0 0.0 0.00 0.00 0.00 64 1011.2
20260904103551 23 141 0.0 0.0 0.00 0.00 0.00 64 1011.1
20260904103031 23 141 0.0 0.0 0.00 0.00 0.00 65 1011.1
20260904102510 23 141 0.0 0.0 0.00 0.00 0.00 65 1011.0
20260904102054 23 141 0.0 0.0 0.00 0.00 0.00 65 1011.1
20260904101535 23 141 0.0 0.0 0.00 0.00 0.00 66 1011.0
20260904101018 24 141 0.0 0.0 0.00 0.00 0.00 66 1011.0
20260904100556 24 141 0.0 0.0 0.00 0.00 0.00 66 1011.0
20260904100036 24 141 0.0 0.0 0.00 0.00 0.00 67 1010.9
20260904095519 24 141 0.0 0.0 0.00 0.00 0.00 67 1010.9
20260904095058 24 141 0.0 0.0 0.00 0.00 0.00 67 1010.9
20260904094538 24 141 0.0 0.0 0.00 0.00 0.00 68 1010.8
20260904094018 24 141 0.0 1.6 0.00 0.00 0.00 68 1010.7
20260904093601 24 141 0.0 1.6 0.00 0.00 0.00 68 1010.7
20260904093040 24 141 0.0 0.0 0.00 0.00 0.00 69 1010.7
20260904092518 24 141 0.0 0.0 0.00 0.00 0.00 69 1010.6
20260904092103 24 141 0.0 0.0 0.00 0.00 0.00 69 1010.6
20260904091542 24 141 0.0 0.0 0.00 0.00 0.00 69 1010.6
20260904091024 24 141 0.0 0.0 0.00 0.00 0.00 69 1010.5
20260904090500 25 141 0.0 0.0 0.00 0.00 0.00 70 1010.5
20260904090044 25 141 0.0 0.0 0.00 0.00 0.00 70 1010.4
20260904085524 25 141 0.0 0.0 0.00 0.00 0.00 70 1010.3
20260904085003 25 141 0.0 0.0 0.00 0.00 0.00 70 1010.3
20260904084555 25 141 0.0 0.0 0.00 0.00 0.00 71 1010.2
20260904084026 25 141 0.0 0.0 0.00 0.00 0.00 71 1010.2
20260904083507 25 141 0.0 0.0 0.00 0.00 0.00 71 1010.3
20260904083053 25 141 0.0 0.0 0.00 0.00 0.00 71 1010.3
20260904082529 25 141 0.0 0.0 0.00 0.00 0.00 71 1010.2
20260904082010 25 141 0.0 1.6 0.00 0.00 0.00 71 1010.2
20260904081553 25 129 0.0 1.6 0.00 0.00 0.00 71 1010.2
20260904081035 25 129 0.0 0.0 0.00 0.00 0.00 71 1010.1
20260904080511 25 129 0.0 0.0 0.00 0.00 0.00 71 1010.1
20260904080115 25 129 0.0 0.0 0.00 0.00 0.00 71 1010.1
20260904075535 25 129 0.0 0.0 0.00 0.00 0.00 71 1010.2
20260904075012 25 129 0.0 0.0 0.00 0.00 0.00 71 1010.1
20260904074557 25 129 0.0 0.0 0.00 0.00 0.00 71 1010.1
20260904074041 25 129 0.0 0.0 0.00 0.00 0.00 71 1010.1
20260904073514 25 129 0.0 0.0 0.00 0.00 0.00 71 1010.1
20260904073057 25 129 0.0 0.0 0.00 0.00 0.00 71 1010.1
20260904072540 25 129 0.0 0.0 0.00 0.00 0.00 71 1010.0
20260904072016 25 129 0.0 0.0 0.00 0.00 0.00 71 1010.0
20260904071603 25 129 0.0 0.0 0.00 0.00 0.00 71 1010.0
20260904071039 26 129 0.0 0.0 0.00 0.00 0.00 71 1010.0
20260904070526 26 129 0.0 0.0 0.00 0.00 0.00 71 1010.1
20260904065541 26 129 0.0 0.0 0.00 0.00 0.00 71 1010.1
20260904065021 26 129 0.0 0.0 0.00 0.00 0.00 71 1010.1
20260904064501 26 129 0.0 0.0 0.00 0.00 0.00 71 1010.2
20260904064045 26 129 0.0 0.0 0.00 0.00 0.00 71 1010.1
20260904063524 26 129 0.0 0.0 0.00 0.00 0.00 71 1010.0
20260904063004 26 129 0.0 0.0 0.00 0.00 0.00 71 1010.1
20260904062547 26 129 0.0 0.0 0.00 0.00 0.00 71 1010.1
20260904062027 26 129 0.0 0.0 0.00 0.00 0.00 70 1010.1
20260904061507 26 129 0.0 0.0 0.00 0.00 0.00 70 1010.1
20260904061053 26 129 0.0 0.0 0.00 0.00 0.00 70 1010.0
20260904060530 26 129 0.0 0.0 0.00 0.00 0.00 70 1009.9
20260904060012 26 129 0.0 0.0 0.00 0.00 0.00 69 1010.0
20260904055555 26 129 0.0 0.0 0.00 0.00 0.00 69 1010.0
20260904055033 26 129 0.0 0.0 0.00 0.00 0.00 69 1010.0
20260904054527 27 129 0.0 0.0 0.00 0.00 0.00 69 1009.9
20260904054056 27 129 0.0 0.0 0.00 0.00 0.00 68 1010.0
20260904053535 27 129 0.0 0.0 0.00 0.00 0.00 69 1009.9
20260904053019 27 129 0.0 0.0 0.00 0.00 0.00 68 1009.9
20260904052601 27 129 0.0 0.0 0.00 0.00 0.00 68 1009.9
20260904052038 27 129 0.0 1.6 0.00 0.00 0.00 67 1009.9
20260904051520 27 129 0.0 1.6 0.00 0.00 0.00 67 1009.7
20260904051100 27 143 0.0 0.0 0.00 0.00 0.00 67 1009.7
20260904050540 27 143 0.0 1.6 0.00 0.00 0.00 67 1009.7
20260904050020 27 143 0.0 0.0 0.00 0.00 0.00 67 1009.7
20260904045602 27 143 0.0 0.0 0.00 0.00 0.00 68 1009.7
20260904045040 26 143 0.0 0.0 0.00 0.00 0.00 69 1009.6
20260904044519 26 143 0.0 0.0 0.00 0.00 0.00 70 1009.7
20260904044102 26 143 0.0 0.0 0.00 0.00 0.00 70 1009.6
20260904043543 26 143 0.0 0.0 0.00 0.00 0.00 70 1009.7
20260904043034 26 143 0.0 0.0 0.00 0.00 0.00 71 1009.6
20260904042504 26 143 0.0 0.0 0.00 0.00 0.00 71 1009.6
20260904042047 26 143 0.0 0.0 0.00 0.00 0.00 70 1009.7
20260904041524 26 143 0.0 0.0 0.00 0.00 0.00 70 1009.6
20260904041003 26 143 0.0 0.0 0.00 0.00 0.00 70 1009.6
20260904040545 26 143 0.0 0.0 0.00 0.00 0.00 71 1009.6
20260904040025 26 143 0.0 0.0 0.00 0.00 0.00 70 1009.6
20260904035505 26 143 0.0 0.0 0.00 0.00 0.00 70 1009.7
20260904035050 27 143 0.0 0.0 0.00 0.00 0.00 70 1009.7
20260904034528 27 143 0.0 0.0 0.00 0.00 0.00 70 1009.6
20260904034006 27 143 0.0 0.0 0.00 0.00 0.00 69 1009.7
20260904033550 27 143 0.0 0.0 0.00 0.00 0.00 70 1009.7
20260904033032 27 143 0.0 0.0 0.00 0.00 0.00 69 1009.6
20260904032508 27 143 0.0 0.0 0.00 0.00 0.00 69 1009.6
20260904032056 27 143 0.0 0.0 0.00 0.00 0.00 69 1009.7
20260904031532 27 143 0.0 0.0 0.00 0.00 0.00 69 1009.6
20260904031011 27 143 0.0 0.0 0.00 0.00 0.00 68 1009.7
20260904030559 27 143 0.0 0.0 0.00 0.00 0.00 68 1009.7
20260904030051 27 143 0.0 0.0 0.00 0.00 0.00 67 1009.6
20260904025514 27 143 0.0 0.0 0.00 0.00 0.00 66 1009.6
20260904025058 27 143 0.0 0.0 0.00 0.00 0.00 66 1009.6
20260904024537 27 143 0.0 0.0 0.00 0.00 0.00 66 1009.5
20260904024014 27 143 0.0 0.0 0.00 0.00 0.00 64 1009.5
20260904023559 28 143 0.0 0.0 0.00 0.00 0.00 64 1009.4
20260904023039 28 143 0.0 0.0 0.00 0.00 0.00 63 1009.4